User: anonymous   Login
Location: Unspecified
(0.0000°N, 0.0000°E)
Time: 17:36:44
(UTC+00:00)
Language:

Kosmos-1333 - Orbit

View from above orbital plane
View from above orbital plane
View from above satellite
View from above satellite

Ground track
Ground track

The orbit data is extracted from the following two-line orbital elements,

1 13033U 82003A   18171.06636184  .00000020  00000-0  46465-5 0  9997
2 13033  82.9404 161.6415 0033096  31.4642  30.5492 13.73209958825818
Epoch (UTC): 20 June 2018 01:35:33
Eccentricity: 0.0033096
inclination: 82.9404°
perigee height: 963 km
apogee height: 1012 km
right ascension of ascending node: 161.6415°
argument of perigee: 31.4642°
revolutions per day: 13.73209958
mean anomaly at epoch: 30.5492°
orbit number at epoch: 82581

The dashed part of the orbit path shows where the satellite is in the earth's shadow,  

DLR